sat.trackr.live / text

‹ back to catalog

STARLINK-36211

NORAD 67218 · 2025-304AC

PAYLOAD ACTIVE UNKNOWN

§ Identity

Operator
Country
US
Launch date
2025-12-17
Launch site
AFWTR
Launch vehicle
Mass (kg)
RCS (m²)

Purposes: comms

External: N2YO · Heavens-Above · Gunter

§ Orbital elements

Epoch: 2026-05-24T23:39:50.190912Z

Period
96.11 min
Inclination
70.0014°
Eccentricity
0.0002584
Mean motion
14.98335061 rev/d
Perigee alt
570.2 km
Apogee alt
573.8 km
Semi-major
6,950.2 km
B*
4.9533e-5
RAAN
342.0604°
Arg perigee
266.2676°
Mean anomaly
93.8188°
Rev number
2,528

§ Raw data

STARLINK-362111 67218U 25304AC  26144.98599758  .00000498  00000+0  49533-4 0  99932 67218  70.0014 342.0604 0002584 266.2676  93.8188 14.98335061 25285

JSON: /api/v1/satellites/67218 · /tle

For live sub-satellite position, see the globe view (requires WebGL).

§ Visibility from observer

Set your observer location to see the next 7 days of passes ≥ 10°. The values pass through the URL so the page stays shareable.

No JS? Fill the form by hand. The geolocation button needs JavaScript.